[[{"header":{"parameterUnit":"m.s-1","parameterCategory":1,"la1":30.2991,"la2":30.254,"lo1":-89.0895,"lo2":-89.0444,"dy":0.0017,"dx":0.0017,"nx":28,"ny":28,"refTime":"2023-09-04T09:00:00:Z","depth":0,"parameterNumber":2,"parameterNumberName":"U-component_of_WINDS"},"data":[0,0,0,0,0,0,0,0,0,0,0,0,0,0,0,0,0,0,0,0,0,0,0,0,0,0,0,0,0,0,0,0,0,0,0,0,0,0,0,0,0,0,0,0,0,0,0,0,0,0,0,0,0,0,0,0,0,0,-3.2619,-3.2615,0,-3.2238,-3.2234,-3.2229,-3.2002,-3.2001,-3.2,-3.2,-3.161,-3.1601,-3.1592,0,0,0,0,0,0,0,0,0,0,0,0,0,-3.3154,-3.3145,-3.2619,-3.2615,-3.261,-3.2239,-3.2233,-3.2228,-3.2003,-3.2001,-3.2,-3.1999,-3.1613,-3.1602,-3.1591,0,0,0,0,0,0,0,0,0,0,0,0,0,-3.2862,-3.3142,-3.262,-3.2453,-3.2434,-3.224,-3.2233,-3.2227,-3.2003,-3.2001,-3.2,-3.1998,-3.1617,-3.1603,-3.1589,-3.1533,0,0,-3.1546,-3.154,0,0,0,0,0,0,0,0,-3.2879,-3.2843,-3.2482,-3.2464,-3.2442,-3.2166,-3.2279,-3.1994,-3.2003,-3.2167,-3.1999,-3.1998,-3.1797,-3.1768,-3.1699,-3.1514,-3.1498,-3.1545,-3.1536,-3.153,-3.1526,0,0,0,0,0,0,0,-3.29,-3.2858,-3.2468,-3.2477,-3.2453,-3.2397,-3.2354,-3.2224,-3.1995,-3.2152,-3.2135,-3.2093,-3.1785,-3.1714,-3.1689,-3.1492,-3.1545,-3.1533,-3.1524,-3.1519,-3.1242,-3.1243,0,0,0,0,0,0,-3.2946,-3.2876,-3.248,-3.2457,-3.2661,-3.2389,-3.234,-3.2256,-3.1996,-3.1954,-3.2095,-3.2084,-3.1738,-3.1705,-3.1674,-3.1589,-3.153,-3.1517,-3.1509,-3.1241,-3.1242,-3.1244,0,0,0,0,0,0,-3.2959,-3.2913,-3.2496,-3.2662,-3.2604,-3.2381,-3.2289,-3.225,-3.2177,-3.1952,-3.191,-3.2063,-3.1736,-3.1694,-3.1569,-3.1572,-3.1511,-3.1498,-3.124,-3.1241,-3.1243,-3.142,0,0,0,0,0,0,-3.2975,-3.2919,-3.2894,-3.2663,-3.2596,-3.2397,-3.2289,-3.2243,-3.2153,-3.2136,-3.1911,-3.1873,-3.1732,-3.1592,-3.1556,-3.1552,-3.1487,-3.1238,-3.124,-3.1242,-3.1413,-3.1428,-3.1441,0,0,0,0,0,-3.2995,-3.296,-3.2894,-3.2848,-3.2561,-3.2398,-3.236,-3.2198,-3.2155,-3.2128,-3.1984,-3.188,-3.158,-3.1581,-3.1538,-3.153,-3.1237,-3.124,-3.1242,-3.1407,-3.1425,-3.144,0,0,0,0,0,0,-3.3196,-3.2926,-3.285,-3.2739,-3.2594,-3.236,-3.2321,-3.2222,-3.2085,-3.2074,-3.188,-3.1831,-3.1726,-3.1616,-3.1623,-3.1462,-3.1397,-3.1391,-3.1537,-3.1552,-3.1566,-3.1592,-3.1475,0,0,0,0,0,-3.3229,-3.3118,-3.2888,-3.2812,-3.2743,-3.2546,-3.2469,-3.2357,-3.2198,-3.2135,-3.1981,-3.1831,-3.1703,-3.1622,-3.1491,-3.1398,-3.1346,-3.1372,-3.1386,-3.1399,-3.1394,-3.1337,-3.1345,-3.1252,-3.1252,-3.1252,0,0,-3.3292,-3.3131,-3.3073,-3.2849,-3.2722,-3.2613,-3.2495,-3.2384,-3.23,-3.2118,-3.1989,-3.1873,-3.1693,-3.1584,-3.1528,-3.1489,-3.141,-3.1402,-3.1413,-3.1402,-3.134,-3.1349,-3.1357,-3.1254,-3.1253,-3.1253,0,0,-3.3351,-3.322,-3.3141,-3.3018,-3.2828,-3.2697,-3.268,-3.2461,-3.2376,-3.2245,-3.2106,-3.2006,-3.1789,-3.1666,-3.1576,-3.1594,-3.1492,-3.1557,-3.1627,-3.1573,-3.158,-3.1586,-3.159,-3.1595,-3.1555,-3.1555,-3.1556,0,-3.3454,-3.3283,-3.3114,-3.301,-3.2915,-3.2747,-3.2666,-3.2555,-3.2334,-3.2272,-3.2233,-3.1957,-3.1825,-3.1684,-3.1689,-3.1622,-3.1595,-3.1579,-3.1593,-3.1597,-3.16,-3.1602,-3.1604,-3.1564,-3.1563,-3.1562,-3.1561,0,-3.3418,-3.3302,-3.3262,-3.3051,-3.2953,-3.2862,-3.268,-3.2601,-3.25,-3.2374,-3.2244,-3.208,-3.1913,-3.1872,-3.1772,-3.1718,-3.17,-3.163,-3.1559,-3.162,-3.1619,-3.1618,-3.1577,-3.1574,-3.1571,-3.1569,0,0,-3.3588,-3.3289,-3.3276,-3.3179,-3.2959,-3.2866,-3.277,-3.2606,-3.2542,-3.2397,-3.2309,-3.2132,-3.2066,-3.1963,-3.1849,-3.1802,-3.1826,-3.1737,-3.173,-3.1757,-3.1755,-3.1807,-3.181,-3.176,-3.1759,-3.1759,-3.1769,0,-3.3613,-3.3428,-3.3274,-3.3146,-3.3037,-3.2877,-3.2792,-3.265,-3.2531,-3.2422,-3.2291,-3.2167,-3.2091,-3.2028,-3.1975,-3.1834,-3.1822,-3.1832,-3.1676,-3.1672,-3.1721,-3.1809,-3.1862,-3.188,-3.1768,-3.1768,-3.1767,0,-3.3616,-3.3476,-3.3338,-3.313,-3.3078,-3.3005,-3.2843,-3.2741,-3.2577,-3.2494,-3.2382,-3.2263,-3.2154,-3.2099,-3.1946,-3.1957,-3.1885,-3.1807,-3.1804,-3.1779,-3.1721,-3.1785,-3.1882,-3.1884,-3.1765,-3.1766,-3.1766,0,-3.3751,-3.353,-3.3417,-3.3339,-3.3095,-3.3047,-3.2944,-3.2778,-3.269,-3.255,-3.2491,-3.2342,-3.226,-3.2148,-3.1992,-3.1967,-3.1856,-3.1788,-3.1783,-3.1787,-3.1763,-3.1765,-3.1847,-3.1724,-3.1724,-3.1724,-3.1724,0,-3.3792,-3.3713,-3.3474,-3.3405,-3.3313,-3.3139,-3.3052,-3.2935,-3.2789,-3.2695,-3.255,-3.2465,-3.2267,-3.2159,-3.2038,-3.1929,-3.1894,-3.1824,-3.1792,-3.1834,-3.1843,-3.1781,-3.1774,-3.1724,-3.1724,-3.1724,-3.1724,0,-3.3926,-3.3763,-3.363,-3.3411,-3.3354,-3.3295,-3.3107,-3.3035,-3.2911,-3.2793,-3.2756,-3.256,-3.2426,-3.2261,-3.2074,-3.1993,-3.1895,-3.1849,-3.195,-3.1931,-3.1935,-3.1936,-3.1975,-3.1971,-3.1857,-3.1858,-3.1859,0,-3.396,-3.3896,-3.367,-3.3597,-3.3497,-3.3381,-3.329,-3.3119,-3.3031,-3.2841,-3.2792,-3.2646,-3.2519,-3.2313,-3.2155,-3.2011,-3.1958,-3.1983,-3.1935,-3.1981,-3.1955,-3.1959,-3.1952,-3.1994,-3.1996,-3.1997,-3.1999,0,-3.4039,-3.3962,-3.3838,-3.3686,-3.3582,-3.3455,-3.332,-3.3269,-3.307,-3.2979,-3.2839,-3.2742,-3.2552,-3.2409,-3.2246,-3.214,-3.2036,-3.2016,-3.2006,-3.2047,-3.2107,-3.2072,-3.198,-3.2014,-3.2013,-3.2012,-3.2011,-3.201,-3.4121,-3.4056,-3.3887,-3.3754,-3.3636,-3.3514,-3.3435,-3.3301,-3.3182,-3.3012,-3.2919,-3.2782,-3.2621,-3.2392,-3.2291,-3.2182,-3.2144,-3.2132,-3.2128,-3.2126,-3.2138,-3.2129,-3.2152,-3.2152,-3.2151,-3.215,-3.215,0,-3.419,-3.4074,-3.3953,-3.377,-3.3666,-3.3579,-3.3427,-3.3345,-3.3226,-3.3085,-3.2964,-3.2805,-3.2667,-3.25,-3.2351,-3.2296,-3.2245,-3.2263,-3.2263,-3.224,-3.2182,-3.2203,-3.2306,-3.2306,-3.2306,-3.2306,-3.2306,-3.2306,-3.4213,-3.4098,-3.4002,-3.3828,-3.3712,-3.3576,-3.3496,-3.3384,-3.327,-3.3098,-3.2983,-3.2875,-3.2723,-3.2563,-3.2433,-3.2387,-3.2338,-3.237,-3.231,-3.2258,-3.2244,-3.2231,-3.225,-3.2361,-3.2362,-3.2377,-3.2377,-3.2377]},{"header":{"parameterUnit":"m.s-1","parameterCategory":1,"la1":30.2991,"la2":30.254,"lo1":-89.0895,"lo2":-89.0444,"dy":0.0017,"dx":0.0017,"nx":28,"ny":28,"refTime":"2023-09-04T09:00:00:Z","depth":0,"parameterNumber":3,"parameterNumberName":"V-component_of_WINDS"},"data":[0,0,0,0,0,0,0,0,0,0,0,0,0,0,0,0,0,0,0,0,0,0,0,0,0,0,0,0,0,0,0,0,0,0,0,0,0,0,0,0,0,0,0,0,0,0,0,0,0,0,0,0,0,0,0,0,0,0,1.1202,1.1202,0,1.1248,1.1248,1.1249,1.1268,1.1268,1.1268,1.1268,1.1319,1.1321,1.1322,0,0,0,0,0,0,0,0,0,0,0,0,0,1.1139,1.114,1.1202,1.1202,1.1203,1.1248,1.1248,1.1249,1.1268,1.1268,1.1268,1.1268,1.1319,1.1321,1.1323,0,0,0,0,0,0,0,0,0,0,0,0,0,1.1174,1.1141,1.1202,1.1218,1.1219,1.1248,1.1248,1.1249,1.1268,1.1268,1.1268,1.1267,1.1318,1.1321,1.1323,1.134,0,0,1.133,1.1331,0,0,0,0,0,0,0,0,1.1172,1.1176,1.1215,1.1217,1.1219,1.1252,1.1245,1.128,1.1268,1.125,1.1268,1.1267,1.1297,1.1301,1.1311,1.1342,1.1344,1.133,1.1331,1.1332,1.1333,0,0,0,0,0,0,0,1.117,1.1174,1.122,1.1215,1.1218,1.1226,1.123,1.1252,1.1274,1.1251,1.1253,1.1258,1.1299,1.1308,1.1312,1.1345,1.133,1.1332,1.1333,1.1334,1.1401,1.1402,0,0,0,0,0,0,1.1164,1.1172,1.1219,1.1221,1.1194,1.1227,1.1232,1.1241,1.1274,1.1279,1.1258,1.1258,1.1305,1.1309,1.1314,1.134,1.1332,1.1334,1.1335,1.1401,1.1401,1.1402,0,0,0,0,0,0,1.1162,1.1167,1.1217,1.1197,1.1204,1.1228,1.1238,1.1242,1.1252,1.1279,1.1283,1.1263,1.1305,1.1311,1.1335,1.1342,1.1335,1.1337,1.14,1.1401,1.1401,1.139,0,0,0,0,0,0,1.116,1.1167,1.1171,1.1197,1.1205,1.1234,1.1239,1.1243,1.1255,1.1257,1.1285,1.129,1.1305,1.1331,1.1337,1.1345,1.1339,1.14,1.14,1.1401,1.139,1.139,1.1391,0,0,0,0,0,1.1158,1.1165,1.1171,1.1176,1.121,1.1234,1.1239,1.1255,1.1256,1.1262,1.1281,1.1289,1.134,1.1333,1.134,1.1349,1.1399,1.14,1.1401,1.139,1.139,1.1391,0,0,0,0,0,0,1.1139,1.1169,1.1175,1.1191,1.121,1.1237,1.1245,1.1254,1.1274,1.1274,1.1295,1.1302,1.1325,1.134,1.1331,1.1371,1.1371,1.1373,1.136,1.1361,1.1361,1.1358,1.1341,0,0,0,0,0,1.1137,1.1151,1.1177,1.1189,1.1198,1.122,1.1231,1.1242,1.1263,1.1271,1.1291,1.1313,1.1335,1.1349,1.137,1.1393,1.1402,1.1403,1.1403,1.1404,1.1406,1.1425,1.1427,1.1405,1.1405,1.1405,0,0,1.1132,1.115,1.1158,1.1186,1.1201,1.122,1.1226,1.1243,1.1258,1.1274,1.1299,1.1315,1.1341,1.1366,1.1378,1.1379,1.1414,1.1405,1.1405,1.1407,1.1426,1.1428,1.143,1.1406,1.1406,1.1406,0,0,1.1133,1.1146,1.116,1.1177,1.1201,1.1216,1.122,1.1247,1.1258,1.1283,1.1298,1.1317,1.1353,1.1373,1.1388,1.1404,1.1414,1.141,1.1412,1.1431,1.1433,1.1434,1.1444,1.1447,1.1412,1.1412,1.1412,0,1.1124,1.1149,1.1166,1.1184,1.1198,1.1214,1.1231,1.1247,1.1278,1.1289,1.1289,1.1339,1.1357,1.139,1.1394,1.1405,1.1413,1.1406,1.1431,1.1433,1.1435,1.1444,1.1447,1.1412,1.1412,1.1412,1.1412,0,1.1139,1.1157,1.1166,1.1195,1.121,1.1227,1.1251,1.1265,1.1277,1.1294,1.1323,1.1347,1.1376,1.1385,1.1395,1.1421,1.1421,1.1426,1.1427,1.1436,1.1446,1.1449,1.1411,1.1411,1.1411,1.1412,0,0,1.1126,1.1168,1.1171,1.1187,1.1218,1.1234,1.1255,1.1283,1.1297,1.1319,1.134,1.1373,1.138,1.1397,1.1411,1.1428,1.1445,1.1431,1.1432,1.1436,1.1481,1.1478,1.1481,1.1453,1.1453,1.1454,1.148,0,1.1133,1.1167,1.1186,1.1215,1.1234,1.1254,1.1273,1.1296,1.1315,1.1337,1.1358,1.1383,1.1387,1.1398,1.1415,1.1439,1.1455,1.1437,1.1476,1.1477,1.1469,1.1486,1.1482,1.1504,1.1483,1.1484,1.1484,0,1.1143,1.1166,1.1197,1.1231,1.124,1.1256,1.1287,1.1306,1.1336,1.1349,1.1371,1.1387,1.1415,1.1414,1.1456,1.1444,1.1462,1.1477,1.1479,1.1483,1.1481,1.1494,1.1511,1.1516,1.1489,1.1489,1.1489,0,1.1135,1.1173,1.1198,1.121,1.125,1.1262,1.128,1.1309,1.1327,1.1355,1.1368,1.1399,1.1417,1.1443,1.1469,1.1465,1.1511,1.151,1.1526,1.1525,1.1533,1.1533,1.1557,1.1542,1.1542,1.1542,1.1542,0,1.114,1.1159,1.1195,1.1209,1.1233,1.1258,1.1282,1.1302,1.1329,1.1352,1.1371,1.1393,1.1425,1.1453,1.1474,1.1509,1.1516,1.153,1.1536,1.1529,1.1527,1.1541,1.1541,1.1543,1.1543,1.1543,1.1543,0,1.1133,1.1157,1.1186,1.1223,1.1233,1.1249,1.1282,1.1301,1.1322,1.1351,1.136,1.1394,1.1428,1.1457,1.1501,1.1516,1.1553,1.1559,1.1543,1.1546,1.156,1.156,1.1595,1.1603,1.1581,1.1581,1.1581,0,1.1135,1.1151,1.119,1.1206,1.1224,1.1249,1.1268,1.1295,1.1315,1.1354,1.1369,1.1404,1.1434,1.1489,1.152,1.1557,1.1565,1.1575,1.157,1.1565,1.1569,1.1568,1.1572,1.1575,1.1575,1.1575,1.1575,0,1.1139,1.1151,1.1176,1.1208,1.123,1.1256,1.1283,1.1296,1.133,1.1352,1.1387,1.141,1.1458,1.1495,1.1536,1.1559,1.1575,1.1577,1.1583,1.1577,1.1568,1.1577,1.1546,1.1576,1.1576,1.1576,1.1576,1.1576,1.1138,1.1155,1.1186,1.1216,1.1239,1.1266,1.1286,1.1311,1.134,1.138,1.1396,1.1433,1.147,1.1526,1.155,1.1583,1.1585,1.1593,1.1595,1.1597,1.1598,1.1562,1.159,1.159,1.1591,1.1591,1.1591,0,1.1145,1.1167,1.1194,1.1232,1.1257,1.1269,1.1302,1.1323,1.1354,1.1386,1.1416,1.146,1.1498,1.1535,1.1576,1.1596,1.1605,1.1606,1.1605,1.1612,1.1592,1.1584,1.1598,1.1598,1.1598,1.1598,1.1598,1.1598,1.1151,1.1181,1.1198,1.1243,1.1266,1.1301,1.132,1.1347,1.1373,1.142,1.1452,1.1475,1.1512,1.1557,1.1594,1.1605,1.162,1.162,1.1633,1.1613,1.1612,1.1611,1.1604,1.1623,1.1623,1.165,1.1651,1.1651]}]]